When you browse on this site, cookies collect data to enhance your experience and personalize the content and advertising you see.
Visit our Privacy Policy to learn more. By continuing to use the site, you agree to this use of cookies and data.
  • In Romania
  • List of Countries
  • For 7 days
  • Water Temperature
  • Satellite Maps
  • Weather Map
  • Weather Widgets
  • user-avatar
    Login

    Hourly Weather Aquadeo

    Today, 20 May, Monday

    Time Temperature Precipitation Wind Pressure Humidity
    00:00 +7°C° 0 mm 3 mps 713 mmHg 63%
    01:00 +5°C° 0 mm 3 mps 713 mmHg 64%
    02:00 +5°C° 0 mm 3 mps 713 mmHg 66%
    03:00 +5°C° 0 mm 3 mps 713 mmHg 68%
    04:00 +5°C° 0 mm 3 mps 713 mmHg 70%
    05:00 +5°C° 0 mm 3 mps 713 mmHg 70%
    06:00 +8°C° 0 mm 3 mps 713 mmHg 65%
    07:00 +10°C° 0 mm 4 mps 713 mmHg 59%
    08:00 +12°C° 0 mm 5 mps 713 mmHg 53%
    09:00 +13°C° 0 mm 5 mps 713 mmHg 49%
    10:00 +14°C° 0 mm 5 mps 712 mmHg 46%
    11:00 +15°C° 0 mm 5 mps 712 mmHg 42%
    12:00 +16°C° 0 mm 6 mps 712 mmHg 40%
    13:00 +16°C° 0 mm 6 mps 712 mmHg 39%
    14:00 +17°C° 0 mm 6 mps 711 mmHg 37%
    15:00 +16°C° 0 mm 6 mps 711 mmHg 38%
    16:00 +16°C° 0 mm 5 mps 711 mmHg 40%
    17:00 +16°C° 0 mm 5 mps 710 mmHg 41%
    18:00 +15°C° 0 mm 4 mps 710 mmHg 45%
    19:00 +13°C° 0 mm 4 mps 710 mmHg 49%
    20:00 +12°C° 0 mm 3 mps 710 mmHg 54%
    21:00 +11°C° 0 mm 3 mps 710 mmHg 54%
    22:00 +10°C° 0 mm 3 mps 710 mmHg 54%
    23:00 +9°C° 0 mm 3 mps 710 mmHg 55%

    Tomorrow, 21 May, Tuesday

    Time Temperature Precipitation Wind Pressure Humidity
    00:00 +9°C° 0 mm 3 mps 710 mmHg 55%
    01:00 +9°C° 0 mm 3 mps 710 mmHg 56%
    02:00 +9°C° 0 mm 3 mps 710 mmHg 56%
    03:00 +9°C° 0 mm 3 mps 710 mmHg 59%
    04:00 +7°C° 0 mm 4 mps 710 mmHg 61%
    05:00 +7°C° 0 mm 4 mps 710 mmHg 64%
    06:00 +10°C° 0 mm 4 mps 711 mmHg 60%
    07:00 +12°C° 0 mm 5 mps 711 mmHg 55%
    08:00 +14°C° 0 mm 5 mps 711 mmHg 50%
    09:00 +15°C° 0 mm 5 mps 711 mmHg 47%
    10:00 +16°C° 0 mm 5 mps 711 mmHg 44%
    11:00 +17°C° 0 mm 6 mps 711 mmHg 41%
    12:00 +17°C° 0 mm 5 mps 711 mmHg 40%
    13:00 +17°C° 0 mm 5 mps 711 mmHg 39%
    14:00 +17°C° 0 mm 5 mps 711 mmHg 39%
    15:00 +18°C° 0 mm 4 mps 711 mmHg 40%
    16:00 +18°C° 0 mm 3 mps 711 mmHg 41%
    17:00 +18°C° 0 mm 3 mps 711 mmHg 42%
    18:00 +17°C° 0 mm 2 mps 711 mmHg 47%
    19:00 +16°C° 0 mm 2 mps 711 mmHg 51%
    20:00 +15°C° 0 mm 1 mps 711 mmHg 56%
    21:00 +14°C° 0 mm 2 mps 711 mmHg 56%
    22:00 +13°C° 0 mm 2 mps 711 mmHg 57%
    23:00 +13°C° 0 mm 2 mps 712 mmHg 57%

    Day after tomorrow, 22 May, Wednesday

    Time Temperature Precipitation Wind Pressure Humidity
    00:00 +12°C° 0 mm 2 mps 712 mmHg 57%
    01:00 +10°C° 0 mm 2 mps 711 mmHg 58%
    02:00 +10°C° 0 mm 2 mps 711 mmHg 58%
    03:00 +10°C° 0 mm 2 mps 712 mmHg 59%
    04:00 +9°C° 0 mm 2 mps 712 mmHg 60%
    05:00 +9°C° 0 mm 2 mps 712 mmHg 61%
    06:00 +12°C° 0 mm 2 mps 712 mmHg 56%
    07:00 +15°C° 0 mm 2 mps 712 mmHg 51%
    08:00 +17°C° 0 mm 2 mps 712 mmHg 45%
    09:00 +18°C° 0 mm 3 mps 712 mmHg 41%
    10:00 +20°C° 0 mm 3 mps 712 mmHg 37%
    11:00 +21°C° 0 mm 3 mps 712 mmHg 33%
    12:00 +21°C° 0 mm 3 mps 712 mmHg 33%
    13:00 +21°C° 0 mm 2 mps 711 mmHg 34%
    14:00 +21°C° 0 mm 1 mps 711 mmHg 34%
    15:00 +22°C° 0 mm 1 mps 711 mmHg 33%
    16:00 +22°C° 0 mm 1 mps 711 mmHg 32%
    17:00 +22°C° 0 mm 1 mps 711 mmHg 31%
    18:00 +21°C° 0 mm 1 mps 711 mmHg 36%
    19:00 +19°C° 0 mm 2 mps 711 mmHg 41%
    20:00 +17°C° 0 mm 2 mps 711 mmHg 46%
    21:00 +16°C° 0 mm 2 mps 711 mmHg 48%
    22:00 +16°C° 0 mm 2 mps 711 mmHg 50%
    23:00 +15°C° 0 mm 2 mps 711 mmHg 52%

    23 May, Thursday

    Time Temperature Precipitation Wind Pressure Humidity
    00:00 +14°C° 0 mm 2 mps 711 mmHg 53%
    01:00 +14°C° 0 mm 2 mps 710 mmHg 55%
    02:00 +13°C° 0 mm 1 mps 710 mmHg 56%
    03:00 +13°C° 0 mm 1 mps 710 mmHg 57%
    04:00 +13°C° 0 mm 1 mps 710 mmHg 58%
    05:00 +13°C° 0 mm 1 mps 710 mmHg 58%
    06:00 +15°C° 0 mm 1 mps 711 mmHg 54%
    07:00 +18°C° 0 mm 1 mps 711 mmHg 50%
    08:00 +19°C° 0 mm 1 mps 711 mmHg 45%
    09:00 +21°C° 0 mm 1 mps 711 mmHg 40%
    10:00 +22°C° 0 mm 1 mps 711 mmHg 36%
    11:00 +24°C° 0 mm 1 mps 711 mmHg 31%
    12:00 +23°C° 0 mm 1 mps 710 mmHg 32%
    13:00 +23°C° 0 mm 2 mps 710 mmHg 33%
    14:00 +21°C° 0 mm 2 mps 710 mmHg 35%
    15:00 +21°C° 0 mm 2 mps 709 mmHg 39%
    16:00 +20°C° 0 mm 2 mps 709 mmHg 44%
    17:00 +19°C° 0 mm 2 mps 708 mmHg 49%
    18:00 +18°C° 0 mm 2 mps 708 mmHg 51%
    19:00 +17°C° 0 mm 2 mps 708 mmHg 54%
    20:00 +16°C° 0 mm 1 mps 707 mmHg 57%
    21:00 +16°C° 0 mm 1 mps 707 mmHg 59%
    22:00 +15°C° 0 mm 2 mps 707 mmHg 62%
    23:00 +14°C° 0 mm 2 mps 706 mmHg 64%

    24 May, Friday

    Time Temperature Precipitation Wind Pressure Humidity
    00:00 +13°C° 0 mm 2 mps 706 mmHg 66%
    01:00 +13°C° 0 mm 1 mps 706 mmHg 68%
    02:00 +12°C° 0 mm 1 mps 705 mmHg 71%
    03:00 +12°C° 0 mm 1 mps 705 mmHg 69%
    04:00 +12°C° 0 mm 1 mps 705 mmHg 68%
    05:00 +12°C° 0 mm 1 mps 705 mmHg 67%
    06:00 +14°C° 0 mm 1 mps 705 mmHg 61%
    07:00 +15°C° 0 mm 0 mps 705 mmHg 54%
    08:00 +17°C° 0 mm 0 mps 705 mmHg 47%
    09:00 +20°C° 0 mm 1 mps 705 mmHg 44%
    10:00 +21°C° 0 mm 1 mps 704 mmHg 40%
    11:00 +23°C° 0 mm 2 mps 704 mmHg 37%
    12:00 +23°C° 0.1 mm 2 mps 704 mmHg 37%
    13:00 +22°C° 0.1 mm 1 mps 704 mmHg 37%
    14:00 +22°C° 0.1 mm 1 mps 704 mmHg 37%
    15:00 +23°C° 0 mm 1 mps 704 mmHg 36%
    16:00 +23°C° 0 mm 2 mps 704 mmHg 36%
    17:00 +23°C° 0 mm 2 mps 704 mmHg 35%
    18:00 +20°C° 0 mm 2 mps 703 mmHg 44%
    19:00 +18°C° 0 mm 3 mps 703 mmHg 53%
    20:00 +16°C° 0 mm 3 mps 703 mmHg 62%
    21:00 +14°C° 0.1 mm 3 mps 703 mmHg 68%
    22:00 +13°C° 0.1 mm 3 mps 703 mmHg 74%
    23:00 +12°C° 0.1 mm 3 mps 703 mmHg 79%

    25 May, Saturday

    Time Temperature Precipitation Wind Pressure Humidity
    00:00 +13°C° 0.1 mm 2 mps 703 mmHg 78%
    01:00 +13°C° 0.1 mm 2 mps 703 mmHg 76%
    02:00 +13°C° 0.1 mm 2 mps 703 mmHg 74%
    03:00 +12°C° 0 mm 2 mps 703 mmHg 74%
    04:00 +12°C° 0 mm 2 mps 703 mmHg 73%
    05:00 +12°C° 0 mm 2 mps 703 mmHg 73%
    06:00 +13°C° 0 mm 2 mps 703 mmHg 69%
    07:00 +15°C° 0 mm 2 mps 704 mmHg 64%
    08:00 +17°C° 0 mm 2 mps 704 mmHg 60%
    09:00 +17°C° 1.2 mm 3 mps 704 mmHg 61%
    10:00 +18°C° 1.2 mm 4 mps 705 mmHg 62%
    11:00 +18°C° 1.2 mm 4 mps 705 mmHg 62%
    12:00 +16°C° 0.3 mm 5 mps 705 mmHg 65%
    13:00 +16°C° 0.3 mm 6 mps 705 mmHg 68%
    14:00 +15°C° 0.3 mm 7 mps 706 mmHg 70%
    15:00 +14°C° 0 mm 7 mps 706 mmHg 70%
    16:00 +12°C° 0 mm 7 mps 707 mmHg 69%
    17:00 +12°C° 0 mm 7 mps 707 mmHg 69%
    18:00 +10°C° 0 mm 6 mps 707 mmHg 72%
    19:00 +9°C° 0 mm 6 mps 708 mmHg 74%
    20:00 +8°C° 0 mm 5 mps 708 mmHg 77%
    21:00 +7°C° 0 mm 5 mps 709 mmHg 79%
    22:00 +6°C° 0 mm 5 mps 709 mmHg 81%
    23:00 +3°C° 0 mm 5 mps 709 mmHg 82%
    Show more